Weather History for Aspen, CO

Change the Weather History Date:

Friday, September 7, 2012

  Actual Average Record
Temperature  
Mean Temperature 58 °F 56 °F  
Max Temperature 72 °F 72 °F 86 °F (1998)
Min Temperature 44 °F 41 °F 32 °F (2010)
Degree Days  
Heating Degree Days 7 9  
Month to date heating degree days 32 54  
Since 1 July heating degree days 99 250  
Cooling Degree Days 0 0  
Month to date cooling degree days 0 0  
Year to date cooling degree days 106 39  
Growing Degree Days 10 (Base 50)    
Moisture  
Dew Point 40 °F    
Average Humidity 57    
Maximum Humidity 93    
Minimum Humidity 20    
Precipitation  
Precipitation 0.18 in 0.06 in 0.93 in (1986)
Month to date precipitation 0.18 0.36  
Year to date precipitation 9.44 11.82  
Sea Level Pressure  
Sea Level Pressure 30.04 in    
Wind  
Wind Speed 5 mph (ENE)    
Max Wind Speed 20 mph    
Max Gust Speed 26 mph    
Visibility 10 miles    
Events Rain    
T = Trace of Precipitation, MM = Missing Value Source: NWS Daily Summary

Daily Weather History Graph

Daily Weather History Graph

Search for Another Location

Airport:

Trip Planner

Search our weather history database for the weather conditions in past years. The results will help you decide how hot, cold, wet, or windy it might be!

Date:

Astronomy

Sep. 07, 2012 Rise Set
Actual Time 6:42 AM MDT 7:27 PM MDT
Civil Twilight 6:14 AM MDT 7:54 PM MDT
Nautical Twilight 5:42 AM MDT 8:26 PM MDT
Astronomical Twilight 5:09 AM MDT 9:00 PM MDT
Moon 11:28 PM MDT (9/7) 1:33 PM MDT (9/7)
Length of Visible Light 13h 40m
Length of Day
12h 45m
Waning Gibbous, 58% of the Moon is Illuminated
Sep 7
Waning Gibbous
Sep 8
Last Quarter
Sep 15
New
Sep 22
First Quarter
Sep 29
Full

Hourly Weather History & Observations

Time (MDT) Temp. Dew Point Humidity Pressure Visibility Wind Dir Wind Speed Gust Speed Precip Events Conditions
12:53 AM 55.9 °F 43.0 °F 62% 29.95 in 10.0 mi North 5.8 mph - 0.00 in Rain Light Rain
1:53 AM 53.1 °F 46.9 °F 80% 29.99 in 10.0 mi Calm Calm - 0.00 in Rain Light Rain
2:53 AM 52.0 °F 48.9 °F 89% 30.01 in 7.0 mi Calm Calm - 0.06 in Rain Light Rain
3:53 AM 50.0 °F 48.0 °F 93% 30.01 in 5.0 mi South 3.5 mph - 0.11 in Rain Rain
4:53 AM 52.0 °F 46.9 °F 83% 29.96 in 10.0 mi SE 6.9 mph - 0.01 in   Overcast
5:53 AM 51.1 °F 48.0 °F 89% 29.97 in 10.0 mi Calm Calm - N/A   Scattered Clouds
6:53 AM 50.0 °F 48.0 °F 93% 30.03 in 10.0 mi Calm Calm - N/A   Scattered Clouds
7:53 AM 50.0 °F 48.0 °F 93% 30.06 in 10.0 mi Calm Calm - N/A   Mostly Cloudy
8:53 AM 52.0 °F 48.9 °F 89% 30.08 in 10.0 mi NNE 3.5 mph - 0.00 in   Mostly Cloudy
9:53 AM 55.9 °F 48.0 °F 75% 30.10 in 10.0 mi Calm Calm - N/A   Scattered Clouds
10:53 AM 59.0 °F 46.9 °F 64% 30.08 in 10.0 mi Calm Calm - N/A   Scattered Clouds
11:53 AM 64.9 °F 46.9 °F 52% 30.05 in 10.0 mi North 8.1 mph - N/A   Scattered Clouds
12:53 PM 66.9 °F 41.0 °F 39% 30.03 in 10.0 mi NE 6.9 mph - N/A   Scattered Clouds
1:53 PM 70.0 °F 37.0 °F 30% 30.02 in 10.0 mi NNW 11.5 mph 17.3 mph N/A   Scattered Clouds
2:53 PM 71.1 °F 36.0 °F 28% 30.01 in 10.0 mi North 13.8 mph 21.9 mph N/A   Scattered Clouds
3:53 PM 71.1 °F 30.0 °F 22% 30.01 in 10.0 mi Variable 3.5 mph 26.5 mph N/A   Partly Cloudy
4:53 PM 72.0 °F 28.9 °F 20% 30.00 in 10.0 mi Variable 6.9 mph 16.1 mph N/A   Partly Cloudy
5:53 PM 70.0 °F 28.9 °F 22% 30.01 in 10.0 mi Variable 6.9 mph 16.1 mph N/A   Partly Cloudy
6:53 PM 66.9 °F 28.0 °F 23% 30.03 in 10.0 mi Variable 6.9 mph - N/A   Partly Cloudy
7:53 PM 63.0 °F 28.9 °F 28% 30.06 in 10.0 mi Calm Calm - N/A   Mostly Cloudy
8:53 PM 57.9 °F 30.9 °F 36% 30.13 in 10.0 mi SSE 6.9 mph - N/A   Clear
9:53 PM 52.0 °F 33.1 °F 49% 30.16 in 10.0 mi SSW 6.9 mph - N/A   Partly Cloudy
10:53 PM 48.9 °F 33.1 °F 54% 30.17 in 10.0 mi South 8.1 mph - N/A   Clear
11:53 PM 46.9 °F 32.0 °F 56% 30.16 in 10.0 mi SSW 5.8 mph - N/A   Clear